TimeEDT,TemperatureF,Dew PointF,Humidity,Sea Level PressureIn,VisibilityMPH,Wind Direction,Wind SpeedMPH,Gust SpeedMPH,PrecipitationIn,Events,Conditions,WindDirDegrees,DateUTC
12:53 AM,59.0,39.0,48,30.15,10.0,Variable,3.5,-,N/A,,Clear,0,2013-05-05 04:53:00
1:53 AM,57.0,39.0,51,30.14,10.0,Calm,Calm,-,N/A,,Clear,0,2013-05-05 05:53:00
2:53 AM,55.9,39.0,53,30.13,10.0,Variable,3.5,-,N/A,,Clear,0,2013-05-05 06:53:00
3:53 AM,54.0,39.0,57,30.14,10.0,ESE,3.5,-,N/A,,Clear,120,2013-05-05 07:53:00
4:53 AM,53.1,39.0,59,30.14,10.0,Variable,3.5,-,N/A,,Clear,0,2013-05-05 08:53:00
5:53 AM,52.0,39.0,61,30.14,10.0,Variable,3.5,-,N/A,,Clear,0,2013-05-05 09:53:00
6:53 AM,53.1,39.0,59,30.16,10.0,Calm,Calm,-,N/A,,Clear,0,2013-05-05 10:53:00
7:53 AM,55.0,39.0,55,30.16,10.0,Variable,5.8,-,N/A,,Clear,0,2013-05-05 11:53:00
8:53 AM,59.0,39.0,48,30.15,10.0,ESE,10.4,-,N/A,,Clear,110,2013-05-05 12:53:00
9:53 AM,62.1,37.0,39,30.14,10.0,East,9.2,20.7,N/A,,Clear,100,2013-05-05 13:53:00
10:53 AM,64.9,33.1,31,30.13,10.0,ESE,11.5,19.6,N/A,,Clear,110,2013-05-05 14:53:00
11:53 AM,66.9,30.9,26,30.12,10.0,SE,10.4,18.4,N/A,,Clear,140,2013-05-05 15:53:00
12:53 PM,70.0,28.0,21,30.10,10.0,ESE,8.1,16.1,N/A,,Clear,110,2013-05-05 16:53:00
2:53 PM,72.0,28.0,20,30.07,10.0,Variable,3.5,19.6,N/A,,Clear,0,2013-05-05 18:53:00
3:53 PM,73.9,26.1,17,30.05,10.0,Variable,3.5,-,N/A,,Clear,0,2013-05-05 19:53:00
4:53 PM,73.9,21.0,14,30.04,10.0,SSE,8.1,-,N/A,,Clear,160,2013-05-05 20:53:00
5:53 PM,73.9,19.9,13,30.04,10.0,Variable,5.8,-,N/A,,Clear,0,2013-05-05 21:53:00
6:53 PM,73.0,16.0,11,30.04,10.0,ESE,8.1,-,N/A,,Clear,120,2013-05-05 22:53:00
7:53 PM,70.0,18.0,14,30.05,10.0,Calm,Calm,-,N/A,,Clear,0,2013-05-05 23:53:00
8:53 PM,64.0,16.0,16,30.06,10.0,Calm,Calm,-,N/A,,Clear,0,2013-05-06 00:53:00
9:53 PM,63.0,17.1,17,30.08,10.0,Calm,Calm,-,N/A,,Clear,0,2013-05-06 01:53:00
10:53 PM,61.0,18.0,19,30.07,10.0,Variable,3.5,-,N/A,,Clear,0,2013-05-06 02:53:00
11:53 PM,60.1,21.0,22,30.07,10.0,Variable,4.6,-,N/A,,Clear,0,2013-05-06 03:53:00